Location: Azul
(36.7830°S, 59.8500°W)
Time: 02:54:35
(UTC-03:00)

ISS - Pass Details

Date: 18 October 2017
Orbit: 400 x 408 km, 51.6° (Epoch: 24 October)

Event Time Altitude Azimuth Distance (km) Brightness Sun altitude
Rises 05:26:30 0° 222° (SW) 2,360 -0.2 -9.3°
Reaches altitude 10° 05:28:48 10° 209° (SSW) 1,491 -1.1 -8.9°
Maximum altitude 05:31:45 28° 148° (SSE) 815 -1.7 -8.4°
Drops below altitude 10° 05:34:39 10° 86° (E) 1,475 0.3 -7.8°
Sets 05:36:55 0° 74° (ENE) 2,328 1.1 -7.4°
